Location: Keewatin
(47.4004°N, 93.0827°W)
Time: 06:27:37
(UTC+00:00)

Envisat - Pass Details

Date: 16 December 2019
Orbit: 764 x 766 km, 98.1° (Epoch: 20 January)

Event Time Altitude Azimuth Distance (km) Brightness Sun altitude
Rises 00:31:03 0° 181° (S) 3,220 6.4 -20.8°
Reaches altitude 10° 00:33:26 10° 187° (S) 2,298 5.7 -21.2°
Maximum altitude 00:38:19 48° 261° (W) 1,000 4.0 -22.0°
Drops below altitude 10° 00:43:15 10° 336° (NNW) 2,315 5.6 -22.8°
Sets 00:45:39 0° 342° (NNW) 3,246 6.4 -23.2°
